Regional Weather Roundup
Issued by NWS Upton, NY

Home | Current Version | Previous Version | Text Only | Print | Product List | Glossary On
Versions: 1 2 3 4 5 6 7 8 9 10 11 12 13 14 15 16 17 18 19 20 21 22 23 24 25 26 27 28 29 30 31 32 33 34 35 36 37 38 39 40 41 42 43 44 45 46 47 48 49 50
000
ASUS41 KOKX 080018
RWROKX

REGIONAL WEATHER ROUNDUP
NATIONAL WEATHER SERVICE NEW YORK NY
800 PM EDT TUE JUL 07 2015

NOTE: "FAIR" INDICATES FEW OR NO CLOUDS BELOW 12,000 FEET WITH NO
SIGNIFICANT WEATHER AND/OR OBSTRUCTIONS TO VISIBILITY.

NYZ071-072-176-178-NJZ106-104-080100-
NEW YORK CITY METRO AREA


CITY           SKY/WX    TMP DP  RH WIND       PRES   REMARKS
CENTRAL PARK   PTCLDY    81  70  69 VRB5      29.98R
LAGUARDIA APRT PTCLDY    85  66  53 SW14      29.94R
KENNEDY INTL   MOCLDY    81  70  69 SW10      29.96R
NEWARK/LIBERTY MOCLDY    82  70  66 SW8       29.94R
BRNX BOT. GARD   N/A     84  68  58 S8        29.96S
TETERBORO      PTCLDY    86  68  54 SW8       29.93R
$$

NYZ177-179-078>081-080100-
LONG ISLAND NEW YORK

CITY           SKY/WX    TMP DP  RH WIND       PRES   REMARKS
FARMINGDALE    CLEAR     78  71  79 SW15      29.96S
ISLIP          MOCLDY    77  71  82 SW13      29.96R
SHIRLEY        MOCLDY    75  71  87 SW8       29.99R
WESTHAMPTON    CLOUDY    74  73  97 S9        29.99S FOG
MONTAUK POINT    N/A     74  71  91 S7        30.00S
$$

NYZ052-065-067-080100-
HUDSON VALLEY

CITY           SKY/WX    TMP DP  RH WIND       PRES   REMARKS
WHITE PLAINS   LGT RAIN  79  73  82 S5        29.96R
NEWBURGH       PTCLDY    81  73  78 W5        29.96R
MONTGOMERY     PTCLDY    80  72  76 SW8       29.94R
POUGHKEEPSIE   PTCLDY    79  73  82 SE7       29.92S
ALBANY         MOCLDY    78  70  76 S10       29.89S
$$

NJZ001-105-106-008-010-013-015-019>022-104-080100-
NEW JERSEY

CITY           SKY/WX    TMP DP  RH WIND       PRES   REMARKS
NEWARK/LIBERTY MOCLDY    82  70  66 SW8       29.94R
TETERBORO      PTCLDY    86  68  54 SW8       29.93R
CALDWELL       PTCLDY    83  69  62 CALM      29.94S
MORRISTOWN     PTCLDY    86  73  66 SW6       29.95S HX  93
SOMERVILLE     CLEAR     83  69  62 CALM      29.93S
SUSSEX         PTCLDY    76  69  79 SW3       29.96R
ANDOVER          N/A     75  73  93 CALM      29.97R
TRENTON        CLEAR     82  71  69 SW5       29.95S
MILLVILLE      CLEAR     82  70  66 SW3       29.99R
ATLANTIC CITY  PTCLDY    83  73  72 S7        29.99R
WRIGHTSTOWN    CLEAR     82  69  66 SW7       29.94S
TOMS RIVER     CLEAR     82  73  74 CALM      29.97S
BELMAR         CLEAR     84  70  61 SW7       29.97S
$$

PAZ047>061-062-071-080100-
EASTERN PENNSYLVANIA

CITY           SKY/WX    TMP DP  RH WIND       PRES   REMARKS
PHILADELPHIA   PTCLDY    86  69  56 SW10      29.97R HX  90
ALLENTOWN      CLEAR     81  69  67 SW9       29.96R
SCRANTON       CLEAR     81  66  60 S5        29.96R
$$

CTZ002-004>006-009-010-012-RIZ004-006-007-MAZ004-011-015-080100-
SOUTHERN NEW ENGLAND
 IN CT

CITY           SKY/WX    TMP DP  RH WIND       PRES   REMARKS
BRADLEY INTL   CLOUDY    74  70  87 S8        29.94F
HARTFORD       LGT RAIN  78  72  81 S10       29.95S
DANBURY        MOCLDY    72  50  46 N3        29.98F
WTRBRY/OXFORD  TSTM      72  64  78 W10G23    30.02R
BRIDGEPORT     MOCLDY    79  72  79 W5        29.97R
MERIDEN          N/A     78  71  79 S8        29.96R
NEW HAVEN      LGT RAIN  75  72  90 CALM      29.97R FOG
CHESTER        CLOUDY    73  72  94 S6        30.00R FOG
GROTON         CLOUDY    73  70  90 S6        29.97F
WILLIMANTIC    CLOUDY    77  70  79 S13       29.97F

 IN RI

CITY           SKY/WX    TMP DP  RH WIND       PRES   REMARKS
PROVIDENCE     CLOUDY    77  72  84 S16       29.98F
BLOCK ISLAND   MOCLDY    73  70  88 S12       29.99F
WESTERLY       CLOUDY    73  70  90 S8        30.00S

 IN MA

CITY           SKY/WX    TMP DP  RH WIND       PRES   REMARKS
BOSTON         MOCLDY    78  71  79 S17G23    29.95F
WORCESTER      CLOUDY    75  69  81 S10       29.99F
WESTFIELD      CLOUDY    75  68  78 S8        29.94F
PROVINCETOWN   PTCLDY    70  66  88 S10       30.00S
NANTUCKET      CLOUDY    69  67  93 S10       30.02F FOG
$$

ANZ330-335-338-340-345-350-353-355-080100-
COASTAL MARINE OBSERVATIONS


STATION/POSITION TIME  SKY/WX   TEMP    WIND        PRES    VSBY  WAVE
                                AIR SEA DIR/SP/G                  HT/PER
                 (UTC)          (F)     (DEG/KT/KT) (MB)    (MI)  (FT/S)
NY HARB ENTRANCE 2350            76 73  200/ 17/ 19 1013.6          4/ 5
4S FIRE IS       2303               72                N/A           4/ 5
20S FIRE ISLAND  2350            74 71  200/ 16/ 17 1014.5          4/ 5
GREAT SOUTH BAY  2330            76 78  220/ 16/ 19   N/A
23SW MTP         2350            73 69  200/ 16/ 17 1014.9          3/ 4
HUDSON CANYON    NOT AVBL
KINGS POINT      2300            80 71  190/ 10/ 12 1013.1
CENTRAL LI SOUND NOT AVBL
EASTERN LI SOUND 2300            71 64  200/  4/  8   N/A
ROBBINS REEF     2300            85     220/ 17/ 24 1012.6
$$


>>>>>>>>>>>>>>>>>>>>>>>>>>>> KEY <<<<<<<<<<<<<<<<<<<<<<<<<<<
>                                                          <
>     SKY/WX - SKY CONDITION/PRESENT WEATHER               <
>     TMP    - TEMPERATURE IN FAHRENHEIT                   <
>     DP     - DEWPOINT IN FAHRENHEIT                      <
>     RH     - RELATIVE HUMIDITY IN PERCENT                <
>     WIND   - DIRECTION AND SPEED IN MPH                  <
>     PRES   - MEAN SEA LEVEL PRESSURE IN INCHES OF HG     <
>     WCI    - WIND CHILL INDEX                            <
>     VSB    - VISIBILITY IN MILES                         <
>     HX     - HEAT INDEX                                  <
>     TC     - TEMPERATURE IN CELSIUS                      <
>     VRB    - VARIABLE WIND DIRECTION                     <
>                                                          <
>>>>>>>>>>>>>>>>>>>>>>>>>>>> KEY <<<<<<<<<<<<<<<<<<<<<<<<<<<





USA.gov is the U.S. government's official web portal to all federal, state and local government web resources and services.